Weather in Lazurnoe

Russia / Republic of Crimea     44°37′58″N   34°23′17″E
temp.,
°C
wind,
m/s
gust,
m/s
humid.,
%
clouds,
%
prec.,
mm/h
press.,
hPa
HPBL,
m
11 may, tue
tue1100:00+9wnw447364 0.1 1021116
03:00+7wnw5677100 0.1 1019211
06:00+8wnw688263 0.0 1017297
09:00+10wnw6966100 0.0 1016750
12:00+10wnw5669100 0.0 1015506
15:00+9nw5681100 0.3 1015317
18:00+10wnw4484100 0.3 1015200
21:00+10wnw1188100 0.8 1015110
12 may, wed
wed1200:00+10ssw1192100 0.3 1014162
03:00+9se119181 0.4 1013152
06:00+9ene229052 0.0 1013214
09:00+9ese339179 0.2 1014363
12:00+11se338062 0.1 1013544
15:00+12sse337539 0.1 1013639
18:00+11sse117942 0.0 1013268
21:00+10n11855 0.0 101365
13 may, thu
thu1300:00+9nne11891 0.0 1013105
03:00+10ne11795 0.0 1012103
06:00+11n127348 0.0 101256
09:00+13ese1262100 0.0 1012168
12:00+15ese1357100 0.0 1012299
15:00+17e1357100 0.0 1011325
18:00+16e125875 0.0 1011149
21:00+14ese0157100 0.0 101110
14 may, fri
fri1400:00+14nw22490 0.0 101011
03:00+14wnw11480 0.0 101010
06:00+15nnw22480 0.0 101011
09:00+16ese2254100 0.0 1011113
12:00+17se014791 0.0 1012277
15:00+19s12455 0.0 1011660
18:00+19sw1357100 0.0 1011380
21:00+16wnw22740 0.1 101212
15 may, sat
sat1500:00+15nw43710 0.0 101219
03:00+14nw55707 0.0 101341
06:00+14nw66750 0.0 101467
09:00+17w1266100 0.0 1015337
12:00+16s126981 0.0 1016673
15:00+17w1262100 0.0 1014618
18:00
21:00+15ne2274100 0.0 101611